Tracking 17782 objects as of 25-July-2016
HD Live streaming from Space Station
objects crossing your sky now

RIGIDSPHERE 2 (LCS 4)

Track RIGIDSPHERE 2 (LCS 4) now!
10-day predictions
RIGIDSPHERE 2 (LCS 4) is classified as:


NORAD ID: 5398
Int'l Code: 1971-067E
Perigee: 743.5 km
Apogee: 831.2 km
Inclination: 87.6 °
Period: 100.5 minutes
Semi major axis: 7158 km
RCS: 0.9311 m2 (medium)
Launch date: August 7, 1971
Source: United States (US)
Launch site: AIR FORCE WESTERN TEST RANGE (AFWTR)
Your satellite tracking list
Your tracking list is empty





NASA's NSSDC Master Catalog

Two Line Element Set (TLE):
1 05398U 71067E   16207.20815093  .00000206  00000-0  66925-4 0  9990
2 05398  87.6212 256.3977 0061266 284.3831  75.0570 14.33458728355947
Source of the keplerian elements: AFSPC

N2YO: 619